Location: Quaker Farms
(41.4276°N, 73.1557°W)
Time: 22:24:07
(UTC+00:00)

Vanguard 1 - Pass Details

Date: 19 June 2021
Orbit: 651 x 3832 km, 34.2° (Epoch: 25 July)

Event Time Altitude Azimuth Distance (km) Brightness Sun altitude
Rises 06:37:24 0° 276° (W) 7,374 14.3 -20.9°
Reaches altitude 10° 06:43:07 10° 273° (W) 5,942 13.8 -20.4°
Maximum altitude 06:58:35 50° 205° (SSW) 2,403 11.6 -19.0°
Drops below altitude 10° 07:07:07 10° 132° (SE) 3,384 12.7 -18.2°
Sets 07:09:28 0° 127° (SE) 4,070 13.2 -18.0°
